Location: Bastelaar
(51.0950°N, 3.8602°E)
Time: 19:16:30
(UTC+00:00)

BlueWalker 3 - Pass Details

Date: 22 January 2026
Orbit: 450 x 461 km, 53.2° (Epoch: 11 February)

Event Time Altitude Azimuth Distance (km) Brightness Sun altitude
Rises 18:21:29 0° 220° (SW) 2,447 6.2 -19.0°
Reaches altitude 10° 18:23:44 10° 210° (SSW) 1,578 4.9 -19.3°
Enters shadow 18:26:31 32° 162° (SSE) 803 2.8 -19.8°
